Time,TemperatureF,DewpointF,PressureIn,WindDirection,WindDirectionDegrees,WindSpeedMPH,WindSpeedGustMPH,Humidity,HourlyPrecipIn,Conditions,Clouds,dailyrainin,SoftwareType,DateUTC
2013-04-21 00:03:00,71.0,69.0,30.11,NE,43,3.0,5.0,94,-99.99,,,-99.99,,2013-04-21 04:03:00,
2013-04-21 00:12:00,71.0,69.0,30.11,NE,43,3.0,5.0,94,-99.99,,,-99.99,,2013-04-21 04:12:00,
2013-04-21 00:23:00,71.0,69.0,30.11,NE,49,3.0,6.0,95,-99.99,,,-99.99,,2013-04-21 04:23:00,
2013-04-21 00:33:00,71.0,69.0,30.11,NE,49,3.0,6.0,95,-99.99,,,-99.99,,2013-04-21 04:33:00,
2013-04-21 00:43:00,71.0,69.0,30.11,NE,49,3.0,6.0,95,-99.99,,,-99.99,,2013-04-21 04:43:00,
2013-04-21 00:53:00,71.0,69.0,30.11,NE,49,3.0,6.0,95,-99.99,,,-99.99,,2013-04-21 04:53:00,
2013-04-21 01:02:00,71.0,69.0,30.11,NE,40,4.0,9.0,95,-99.99,,,-99.99,,2013-04-21 05:02:00,
2013-04-21 01:12:00,71.0,69.0,30.11,NE,40,4.0,9.0,95,-99.99,,,-99.99,,2013-04-21 05:12:00,
2013-04-21 01:22:00,70.0,69.0,30.12,East,94,5.0,9.0,95,-99.99,,,-99.99,,2013-04-21 05:22:00,
2013-04-21 01:32:00,70.0,69.0,30.12,East,94,5.0,9.0,95,-99.99,,,-99.99,,2013-04-21 05:32:00,
2013-04-21 01:43:00,70.0,69.0,30.12,ESE,112,5.0,10.0,95,-99.99,,,-99.99,,2013-04-21 05:43:00,
2013-04-21 01:52:00,70.0,69.0,30.12,ESE,112,5.0,10.0,95,-99.99,,,-99.99,,2013-04-21 05:52:00,
2013-04-21 02:01:00,70.0,69.0,30.12,ESE,112,5.0,10.0,95,-99.99,,,-99.99,,2013-04-21 06:01:00,
2013-04-21 02:12:00,70.0,69.0,30.12,ESE,112,5.0,10.0,95,-99.99,,,-99.99,,2013-04-21 06:12:00,
2013-04-21 02:22:00,69.0,68.0,30.10,NE,44,6.0,9.0,96,-99.99,,,-99.99,,2013-04-21 06:22:00,
2013-04-21 02:32:00,69.0,68.0,30.10,NE,44,6.0,9.0,96,-99.99,,,-99.99,,2013-04-21 06:32:00,
2013-04-21 02:42:00,69.0,68.0,30.09,NE,47,5.0,9.0,97,-99.99,,,-99.99,,2013-04-21 06:42:00,
2013-04-21 02:52:00,69.0,68.0,30.09,NE,47,5.0,9.0,97,-99.99,,,-99.99,,2013-04-21 06:52:00,
2013-04-21 03:02:00,69.0,68.0,30.07,ENE,61,6.0,11.0,97,-99.99,,,-99.99,,2013-04-21 07:02:00,
2013-04-21 03:12:00,69.0,68.0,30.07,ENE,61,6.0,11.0,97,-99.99,,,-99.99,,2013-04-21 07:12:00,
2013-04-21 03:22:00,69.0,68.0,30.06,East,89,5.0,9.0,97,-99.99,,,-99.99,,2013-04-21 07:22:00,
2013-04-21 03:32:00,69.0,68.0,30.06,East,89,5.0,9.0,97,-99.99,,,-99.99,,2013-04-21 07:32:00,
2013-04-21 03:42:00,68.0,68.0,30.05,East,95,4.0,9.0,97,-99.99,,,-99.99,,2013-04-21 07:42:00,
2013-04-21 03:52:00,68.0,68.0,30.05,East,95,4.0,9.0,97,-99.99,,,-99.99,,2013-04-21 07:52:00,
2013-04-21 04:01:00,69.0,68.0,30.05,ENE,65,4.0,7.0,97,-99.99,,,-99.99,,2013-04-21 08:01:00,
2013-04-21 04:12:00,69.0,68.0,30.05,ENE,65,4.0,7.0,97,-99.99,,,-99.99,,2013-04-21 08:12:00,
2013-04-21 04:22:00,69.0,68.0,30.04,SE,126,3.0,8.0,97,-99.99,,,-99.99,,2013-04-21 08:22:00,
2013-04-21 04:32:00,69.0,68.0,30.04,SE,126,3.0,8.0,97,-99.99,,,-99.99,,2013-04-21 08:32:00,
2013-04-21 04:42:00,69.0,68.0,30.04,SE,126,3.0,8.0,97,-99.99,,,-99.99,,2013-04-21 08:42:00,
2013-04-21 04:52:00,69.0,68.0,30.04,SE,126,3.0,8.0,97,-99.99,,,-99.99,,2013-04-21 08:52:00,
2013-04-21 05:02:00,69.0,68.0,30.03,ESE,105,4.0,7.0,97,-99.99,,,-99.99,,2013-04-21 09:02:00,
2013-04-21 05:12:00,69.0,68.0,30.03,ESE,105,4.0,7.0,97,-99.99,,,-99.99,,2013-04-21 09:12:00,
2013-04-21 05:21:00,69.0,68.0,30.02,NE,42,6.0,13.0,97,-99.99,,,-99.99,,2013-04-21 09:21:00,
2013-04-21 05:30:00,67.0,66.0,30.06,ESE,111,9.0,17.0,97,-99.99,,,-99.99,,2013-04-21 09:30:00,
2013-04-21 05:33:00,69.0,68.0,30.02,NE,42,6.0,13.0,97,-99.99,,,-99.99,,2013-04-21 09:33:00,
2013-04-21 05:43:00,69.0,68.0,30.02,NE,42,6.0,13.0,97,-99.99,,,-99.99,,2013-04-21 09:43:00,
2013-04-21 05:53:00,69.0,68.0,30.02,NE,42,6.0,13.0,97,-99.99,,,-99.99,,2013-04-21 09:53:00,
2013-04-21 06:03:00,68.0,68.0,30.05,SSW,206,7.0,14.0,97,-99.99,,,-99.99,,2013-04-21 10:03:00,
2013-04-21 06:12:00,68.0,68.0,30.05,SSW,206,7.0,14.0,97,-99.99,,,-99.99,,2013-04-21 10:12:00,
2013-04-21 06:22:00,67.0,66.0,30.06,ESE,111,9.0,17.0,97,-99.99,,,-99.99,,2013-04-21 10:22:00,
2013-04-21 06:30:00,66.0,65.0,30.06,ENE,65,3.0,6.0,97,-99.99,,,-99.99,,2013-04-21 10:30:00,
2013-04-21 06:42:00,65.0,65.0,30.05,NE,42,5.0,10.0,97,-99.99,,,-99.99,,2013-04-21 10:42:00,
2013-04-21 06:52:00,65.0,65.0,30.05,NE,42,5.0,10.0,97,-99.99,,,-99.99,,2013-04-21 10:52:00,
2013-04-21 07:03:00,65.0,65.0,30.05,NE,45,4.0,9.0,97,-99.99,,,-99.99,,2013-04-21 11:03:00,
2013-04-21 07:12:00,66.0,65.0,30.06,ENE,65,3.0,6.0,97,-99.99,,,-99.99,,2013-04-21 11:12:00,
2013-04-21 07:22:00,66.0,65.0,30.06,ENE,65,3.0,6.0,97,-99.99,,,-99.99,,2013-04-21 11:22:00,
2013-04-21 07:30:00,65.0,65.0,30.09,East,80,3.0,6.0,97,-99.99,,,-99.99,,2013-04-21 11:30:00,
2013-04-21 07:42:00,65.0,65.0,30.08,ENE,78,2.0,6.0,97,-99.99,,,-99.99,,2013-04-21 11:42:00,
2013-04-21 07:52:00,65.0,65.0,30.08,ENE,78,2.0,6.0,97,-99.99,,,-99.99,,2013-04-21 11:52:00,
2013-04-21 08:03:00,65.0,65.0,30.09,East,80,3.0,6.0,97,-99.99,,,-99.99,,2013-04-21 12:03:00,
2013-04-21 08:12:00,65.0,65.0,30.09,East,80,3.0,6.0,97,-99.99,,,-99.99,,2013-04-21 12:12:00,
2013-04-21 08:22:00,65.0,65.0,30.09,East,80,3.0,6.0,97,-99.99,,,-99.99,,2013-04-21 12:22:00,
2013-04-21 08:42:00,66.0,65.0,30.11,NE,46,4.0,8.0,96,-99.99,,,-99.99,,2013-04-21 12:42:00,
2013-04-21 08:52:00,66.0,65.0,30.11,NE,46,4.0,8.0,96,-99.99,,,-99.99,,2013-04-21 12:52:00,
2013-04-21 09:01:00,66.0,65.0,30.11,NE,46,4.0,8.0,96,-99.99,,,-99.99,,2013-04-21 13:01:00,
2013-04-21 09:12:00,66.0,65.0,30.11,NE,46,4.0,8.0,96,-99.99,,,-99.99,,2013-04-21 13:12:00,
2013-04-21 09:22:00,67.0,65.0,30.12,ENE,65,5.0,9.0,95,-99.99,,,-99.99,,2013-04-21 13:22:00,
2013-04-21 09:32:00,67.0,65.0,30.12,ENE,65,5.0,9.0,95,-99.99,,,-99.99,,2013-04-21 13:32:00,
2013-04-21 09:42:00,67.0,65.0,30.12,NE,54,4.0,8.0,94,-99.99,,,-99.99,,2013-04-21 13:42:00,
2013-04-21 09:52:00,67.0,65.0,30.12,NE,54,4.0,8.0,94,-99.99,,,-99.99,,2013-04-21 13:52:00,
2013-04-21 10:02:00,67.0,65.0,30.12,NE,54,4.0,8.0,94,-99.99,,,-99.99,,2013-04-21 14:02:00,
2013-04-21 10:11:00,67.0,65.0,30.12,NE,54,4.0,8.0,94,-99.99,,,-99.99,,2013-04-21 14:11:00,
2013-04-21 10:22:00,69.0,67.0,30.11,ENE,62,4.0,7.0,93,-99.99,,,-99.99,,2013-04-21 14:22:00,
2013-04-21 10:32:00,69.0,67.0,30.11,ENE,62,4.0,7.0,93,-99.99,,,-99.99,,2013-04-21 14:32:00,
2013-04-21 10:42:00,69.0,67.0,30.11,ENE,62,4.0,7.0,93,-99.99,,,-99.99,,2013-04-21 14:42:00,
2013-04-21 10:52:00,69.0,67.0,30.11,ENE,62,4.0,7.0,93,-99.99,,,-99.99,,2013-04-21 14:52:00,
2013-04-21 11:02:00,73.0,68.0,30.11,East,84,5.0,9.0,86,-99.99,,,-99.99,,2013-04-21 15:02:00,
2013-04-21 11:11:00,73.0,68.0,30.11,East,84,5.0,9.0,86,-99.99,,,-99.99,,2013-04-21 15:11:00,
2013-04-21 11:22:00,75.0,69.0,30.11,NE,43,6.0,10.0,81,-99.99,,,-99.99,,2013-04-21 15:22:00,
2013-04-21 11:33:00,75.0,69.0,30.11,NE,43,6.0,10.0,81,-99.99,,,-99.99,,2013-04-21 15:33:00,
2013-04-21 11:43:00,75.0,69.0,30.11,NE,43,6.0,10.0,81,-99.99,,,-99.99,,2013-04-21 15:43:00,
2013-04-21 11:53:00,75.0,69.0,30.11,NE,43,6.0,10.0,81,-99.99,,,-99.99,,2013-04-21 15:53:00,
2013-04-21 12:03:00,77.0,70.0,30.11,ENE,63,6.0,12.0,79,-99.99,,,-99.99,,2013-04-21 16:03:00,
2013-04-21 12:13:00,77.0,70.0,30.11,ENE,63,6.0,12.0,79,-99.99,,,-99.99,,2013-04-21 16:13:00,
2013-04-21 12:23:00,81.0,71.0,30.10,East,85,5.0,10.0,70,-99.99,,,-99.99,,2013-04-21 16:23:00,
2013-04-21 12:30:00,82.0,71.0,30.10,ENE,71,7.0,13.0,69,-99.99,,,-99.99,,2013-04-21 16:30:00,
2013-04-21 12:33:00,81.0,71.0,30.10,East,85,5.0,10.0,70,-99.99,,,-99.99,,2013-04-21 16:33:00,
2013-04-21 12:42:00,81.0,71.0,30.10,ENE,61,6.0,10.0,71,-99.99,,,-99.99,,2013-04-21 16:42:00,
2013-04-21 12:53:00,81.0,71.0,30.10,ENE,61,6.0,10.0,71,-99.99,,,-99.99,,2013-04-21 16:53:00,
2013-04-21 13:02:00,82.0,71.0,30.10,ENE,71,7.0,13.0,69,-99.99,,,-99.99,,2013-04-21 17:02:00,
2013-04-21 13:12:00,82.0,71.0,30.10,ENE,71,7.0,13.0,69,-99.99,,,-99.99,,2013-04-21 17:12:00,
2013-04-21 13:23:00,82.0,71.0,30.10,ENE,71,7.0,13.0,69,-99.99,,,-99.99,,2013-04-21 17:23:00,
2013-04-21 13:30:00,84.0,71.0,30.07,East,92,6.0,14.0,65,-99.99,,,-99.99,,2013-04-21 17:30:00,
2013-04-21 13:42:00,83.0,71.0,30.07,East,79,6.0,13.0,65,-99.99,,,-99.99,,2013-04-21 17:42:00,
2013-04-21 13:52:00,83.0,71.0,30.07,East,79,6.0,13.0,65,-99.99,,,-99.99,,2013-04-21 17:52:00,
2013-04-21 14:02:00,84.0,71.0,30.07,East,92,6.0,14.0,65,-99.99,,,-99.99,,2013-04-21 18:02:00,
2013-04-21 14:11:00,84.0,71.0,30.07,East,92,6.0,14.0,65,-99.99,,,-99.99,,2013-04-21 18:11:00,
2013-04-21 14:22:00,84.0,71.0,30.07,East,92,6.0,14.0,65,-99.99,,,-99.99,,2013-04-21 18:22:00,
2013-04-21 14:42:00,84.0,71.0,30.05,ENE,62,6.0,13.0,63,-99.99,,,-99.99,,2013-04-21 18:42:00,
2013-04-21 14:52:00,84.0,71.0,30.05,ENE,62,6.0,13.0,63,-99.99,,,-99.99,,2013-04-21 18:52:00,
2013-04-21 15:02:00,84.0,70.0,30.03,NE,55,6.0,12.0,62,-99.99,,,-99.99,,2013-04-21 19:02:00,
2013-04-21 15:12:00,84.0,70.0,30.03,NE,55,6.0,12.0,62,-99.99,,,-99.99,,2013-04-21 19:12:00,
2013-04-21 15:22:00,84.0,70.0,30.02,ENE,64,5.0,14.0,63,-99.99,,,-99.99,,2013-04-21 19:22:00,
2013-04-21 15:32:00,84.0,70.0,30.02,ENE,64,5.0,14.0,63,-99.99,,,-99.99,,2013-04-21 19:32:00,
2013-04-21 15:43:00,82.0,71.0,30.02,SSE,163,5.0,16.0,67,-99.99,,,-99.99,,2013-04-21 19:43:00,
2013-04-21 15:52:00,82.0,71.0,30.02,SSE,163,5.0,16.0,67,-99.99,,,-99.99,,2013-04-21 19:52:00,
2013-04-21 16:02:00,82.0,71.0,30.02,SSE,163,5.0,16.0,67,-99.99,,,-99.99,,2013-04-21 20:02:00,
2013-04-21 16:11:00,82.0,71.0,30.02,SSE,163,5.0,16.0,67,-99.99,,,-99.99,,2013-04-21 20:11:00,
2013-04-21 16:22:00,74.0,69.0,30.03,WSW,254,10.0,23.0,83,-99.99,,,-99.99,,2013-04-21 20:22:00,
2013-04-21 16:32:00,74.0,69.0,30.03,WSW,254,10.0,23.0,83,-99.99,,,-99.99,,2013-04-21 20:32:00,
2013-04-21 16:42:00,68.0,66.0,30.02,NW,308,7.0,12.0,94,-99.99,,,-99.99,,2013-04-21 20:42:00,
2013-04-21 16:52:00,68.0,66.0,30.02,NW,308,7.0,12.0,94,-99.99,,,-99.99,,2013-04-21 20:52:00,
2013-04-21 17:02:00,68.0,66.0,30.02,NW,308,7.0,12.0,94,-99.99,,,-99.99,,2013-04-21 21:02:00,
2013-04-21 17:12:00,68.0,66.0,30.02,NW,308,7.0,12.0,94,-99.99,,,-99.99,,2013-04-21 21:12:00,
2013-04-21 17:22:00,68.0,66.0,30.00,WNW,282,6.0,12.0,94,-99.99,,,-99.99,,2013-04-21 21:22:00,
2013-04-21 17:33:00,73.0,70.0,30.00,West,278,3.0,6.0,89,-99.99,,,-99.99,,2013-04-21 21:33:00,
2013-04-21 17:43:00,73.0,70.0,30.00,West,278,3.0,6.0,89,-99.99,,,-99.99,,2013-04-21 21:43:00,
2013-04-21 17:53:00,73.0,70.0,30.00,West,278,3.0,6.0,89,-99.99,,,-99.99,,2013-04-21 21:53:00,
2013-04-21 18:03:00,75.0,70.0,30.01,ESE,123,5.0,13.0,84,-99.99,,,-99.99,,2013-04-21 22:03:00,
2013-04-21 18:12:00,75.0,70.0,30.01,ESE,123,5.0,13.0,84,-99.99,,,-99.99,,2013-04-21 22:12:00,
2013-04-21 18:22:00,74.0,68.0,30.03,SE,145,10.0,18.0,82,-99.99,,,-99.99,,2013-04-21 22:22:00,
2013-04-21 18:30:00,72.0,67.0,30.05,SE,145,6.0,10.0,84,-99.99,,,-99.99,,2013-04-21 22:30:00,
2013-04-21 18:33:00,74.0,68.0,30.03,SE,145,10.0,18.0,82,-99.99,,,-99.99,,2013-04-21 22:33:00,
2013-04-21 18:43:00,74.0,68.0,30.03,SE,145,10.0,18.0,82,-99.99,,,-99.99,,2013-04-21 22:43:00,
2013-04-21 18:53:00,74.0,68.0,30.03,SE,145,10.0,18.0,82,-99.99,,,-99.99,,2013-04-21 22:53:00,
2013-04-21 19:02:00,72.0,67.0,30.05,SE,145,6.0,10.0,84,-99.99,,,-99.99,,2013-04-21 23:02:00,
2013-04-21 19:12:00,72.0,67.0,30.05,SE,145,6.0,10.0,84,-99.99,,,-99.99,,2013-04-21 23:12:00,
2013-04-21 19:22:00,72.0,67.0,30.05,SE,145,6.0,10.0,84,-99.99,,,-99.99,,2013-04-21 23:22:00,
2013-04-21 19:30:00,71.0,68.0,30.08,SE,141,8.0,16.0,89,-99.99,,,-99.99,,2013-04-21 23:30:00,
2013-04-21 19:43:00,72.0,68.0,30.07,SE,124,4.0,8.0,87,-99.99,,,-99.99,,2013-04-21 23:43:00,
2013-04-21 19:52:00,72.0,68.0,30.07,SE,124,4.0,8.0,87,-99.99,,,-99.99,,2013-04-21 23:52:00,
2013-04-21 20:01:00,71.0,68.0,30.08,SE,141,8.0,16.0,89,-99.99,,,-99.99,,2013-04-22 00:01:00,
2013-04-21 20:12:00,71.0,68.0,30.08,SE,141,8.0,16.0,89,-99.99,,,-99.99,,2013-04-22 00:12:00,
2013-04-21 20:22:00,71.0,68.0,30.08,SE,141,8.0,16.0,89,-99.99,,,-99.99,,2013-04-22 00:22:00,
2013-04-21 20:30:00,69.0,66.0,30.05,SW,218,3.0,5.0,90,-99.99,,,-99.99,,2013-04-22 00:30:00,
2013-04-21 20:42:00,70.0,66.0,30.06,SSE,161,6.0,11.0,89,-99.99,,,-99.99,,2013-04-22 00:42:00,
2013-04-21 20:52:00,70.0,66.0,30.06,SSE,161,6.0,11.0,89,-99.99,,,-99.99,,2013-04-22 00:52:00,
2013-04-21 21:01:00,69.0,66.0,30.05,SW,218,3.0,5.0,90,-99.99,,,-99.99,,2013-04-22 01:01:00,
2013-04-21 21:12:00,69.0,66.0,30.05,SW,218,3.0,5.0,90,-99.99,,,-99.99,,2013-04-22 01:12:00,
2013-04-21 21:22:00,69.0,66.0,30.05,SW,218,3.0,5.0,90,-99.99,,,-99.99,,2013-04-22 01:22:00,
2013-04-21 21:42:00,68.0,66.0,30.05,WNW,284,3.0,4.0,91,-99.99,,,-99.99,,2013-04-22 01:42:00,
2013-04-21 21:52:00,68.0,66.0,30.05,WNW,284,3.0,4.0,91,-99.99,,,-99.99,,2013-04-22 01:52:00,
2013-04-21 22:02:00,68.0,66.0,30.05,WNW,284,3.0,4.0,91,-99.99,,,-99.99,,2013-04-22 02:02:00,
2013-04-21 22:12:00,68.0,66.0,30.05,WNW,284,3.0,4.0,91,-99.99,,,-99.99,,2013-04-22 02:12:00,
2013-04-21 22:21:00,68.0,67.0,30.05,SE,130,3.0,5.0,96,-99.99,,,-99.99,,2013-04-22 02:21:00,
2013-04-21 22:32:00,68.0,67.0,30.05,SE,130,3.0,5.0,96,-99.99,,,-99.99,,2013-04-22 02:32:00,
2013-04-21 22:42:00,68.0,67.0,30.06,SE,126,4.0,8.0,96,-99.99,,,-99.99,,2013-04-22 02:42:00,
2013-04-21 22:52:00,68.0,67.0,30.06,SE,126,4.0,8.0,96,-99.99,,,-99.99,,2013-04-22 02:52:00,
2013-04-21 23:02:00,68.0,66.0,30.07,SE,133,2.0,5.0,95,-99.99,,,-99.99,,2013-04-22 03:02:00,
2013-04-21 23:11:00,68.0,66.0,30.07,SE,133,2.0,5.0,95,-99.99,,,-99.99,,2013-04-22 03:11:00,
2013-04-21 23:22:00,68.0,66.0,30.08,South,169,1.0,3.0,96,-99.99,,,-99.99,,2013-04-22 03:22:00,
2013-04-21 23:33:00,68.0,66.0,30.08,South,169,1.0,3.0,96,-99.99,,,-99.99,,2013-04-22 03:33:00,
2013-04-21 23:43:00,68.0,66.0,30.08,South,169,1.0,3.0,96,-99.99,,,-99.99,,2013-04-22 03:43:00,
2013-04-21 23:53:00,68.0,66.0,30.08,South,169,1.0,3.0,96,-99.99,,,-99.99,,2013-04-22 03:53:00,